GSAT0213 (PRN E04)

Last updated on Feb. 27, 2020, 4:51 a.m. UTC

1 41861U 16069C   20057.03723264 -.00000004  00000-0  00000+0 0  9997
2 41861  54.6345 164.9665 0002918 266.7298  93.2313  1.70473954 20391
UTC
Height (km)
Latitude
Longitude
Inclination
Orbital Period
UTC large
Height (km)
Speed (km/s)
/
Latitude / Longitude
Inclination (degrees)
Orbital Period (minutes)
Azimuth
Elevation
Range (km)
Doppler Factor
iOS Compass Heading
iOS Angle

Next 30 passes for location: Hong Kong

Rise time Rise Azimuth (degrees) Set time Set Azimuth (degrees) Duration Max altitude (degrees)

No matching passes for this satellites